This is the latest recevied weather packets stored in our database for station/object ZL2ARL. If no packets are shown the sender has not sent any weather packets the latest 10 day(s).
| Time | Temp. | Humidity | Pressure | Rain* | Wind** | Luminosity | Snow |
|---|---|---|---|---|---|---|---|
| 1777836035 | 10.56° C | 82% | 1034.1 hPa | 0 mm | - | 8 W/m² | - |
| 1777832426 | 10.56° C | 81% | 1034 hPa | 0 mm | - | 0 W/m² | - |
| 1777828817 | 10.56° C | 82% | 1034 hPa | 0 mm | - | 0 W/m² | - |
| 1777823433 | 10.56° C | 82% | 1034.4 hPa | 0 mm | - | 0 W/m² | - |
| 1777822224 | 10.56° C | 82% | 1034.4 hPa | 0 mm | - | 0 W/m² | - |
| 1777821034 | 10.56° C | 81% | 1034.3 hPa | 0 mm | - | 0 W/m² | - |
| 1777817424 | 10° C | 83% | 1034.8 hPa | 0 mm | - | 0 W/m² | - |
| 1777815629 | 10° C | 84% | 1034.6 hPa | 0 mm | - | 0 W/m² | - |
| 1777813250 | 10° C | 85% | 1034.7 hPa | 0 mm | - | 0 W/m² | - |
| 1777812020 | 10° C | 85% | 1034.8 hPa | 0 mm | - | 0 W/m² | - |
| 1777811435 | 10° C | 85% | 1034.7 hPa | 0 mm | - | 0 W/m² | - |
| 1777807261 | 9.44° C | 85% | 1034.6 hPa | 0 mm | - | 0 W/m² | - |
| 1777805447 | 9.44° C | 86% | 1034.6 hPa | 0 mm | - | 0 W/m² | - |
| 1777804237 | 9.44° C | 86% | 1034.7 hPa | 0 mm | - | 0 W/m² | - |
| 1777794033 | 10° C | 83% | 1034 hPa | 0 mm | - | 0 W/m² | - |
| 1777786230 | 10.56° C | 79% | 1033.2 hPa | 0 mm | - | 4 W/m² | - |
| 1777785625 | 11.11° C | 79% | 1033.3 hPa | 0 mm | - | 9 W/m² | - |
| 1777785020 | 11.11° C | 78% | 1033.2 hPa | 0 mm | - | 16 W/m² | - |
| 1777779051 | 13.89° C | 71% | 1033.2 hPa | 0 mm | - | 179 W/m² | - |
| 1777773648 | 14.44° C | 68% | 1033.8 hPa | 0 mm | - | 357 W/m² | - |
| 1777773023 | 14.44° C | 68% | 1033.8 hPa | 0 mm | - | 371 W/m² | - |
| 1777771833 | 14.44° C | 69% | 1034.1 hPa | 0 mm | - | 400 W/m² | - |
| 1777764029 | 13.33° C | 74% | 1035.4 hPa | 0 mm | - | 436 W/m² | - |
| 1777761650 | 12.78° C | 75% | 1035.6 hPa | 0 mm | - | 358 W/m² | - |
| 1777761025 | 12.22° C | 76% | 1035.7 hPa | 0 mm | - | 330 W/m² | - |
* Rain latest hour (hover to see other rain measurements)
** Current wind speed in m/s (hover to see current wind gust speed)